Regional Weather Roundup
Issued by NWS Goodland, KS

Home | Current Version | Previous Version | Graphics & Text | Print | Product List | Glossary On
Versions: 1 2 3 4 5 6 7 8 9 10 11 12 13 14 15 16 17 18 19 20 21 22 23 24 25 26 27 28 29 30 31 32 33 34 35 36 37 38 39 40 41 42 43 44 45 46 47 48 49 50
037
ASUS43 KGLD 211659
RWRGLD

GOODLAND FORECAST AREA HOURLY WEATHER ROUNDUP
NATIONAL WEATHER SERVICE GOODLAND KS
1100 AM MDT SAT OCT 21 2017

...OFFICIAL OBSERVATIONS...

CITY           SKY/WX    TMP DP  RH WIND       PRES   REMARKS
GOODLAND KS    CLOUDY    50  32  50 NW22G31   29.91R
HILL CITY KS   CLOUDY    62  34  35 NW28G45   29.84R
IMPERIAL NEB   CLOUDY    52  36  54 NW17G24   29.90R
MCCOOK NEB     CLOUDY    55  38  52 NW23G41   29.86R
AKRON CO       MOSUNNY   51  19  28 NW28G39   29.97R
BURLINGTON CO  CLOUDY    51  24  34 NW23G40   29.95R
LIMON CO       SUNNY     50  18  28 NW31G37   29.98R
$$

...UNOFFICIAL OBSERVATIONS...

CITY           SKY/WX    TMP DP  RH WIND       PRES   REMARKS
LENORA KS        N/A     57  32  39 CALM        N/A
NORTON KS      SUNNY     59  28  31 NW28G40   29.81R
SHARON SPRINGS   N/A     52  31  44 N22G35      N/A
TRENTON NEB      N/A     49  32  52 NW14G22     N/A
YUMA CO        FAIR      50  23  34 NW23G36   29.94R
$$




USA.gov is the U.S. government's official web portal to all federal, state and local government web resources and services.